| time (UTC) | temp F | wind direction | speed MPH | gust MPH | rain 1hr in | rain 24hr in | rain mn in | humidity % | barometer mb |
| 20260905184504 | 56 | 264 | 3.0 | 12.0 | 0.00 | 0.01 | 0.01 | 84 | 1018.5 |
| 20260905183004 | 56 | 258 | 2.0 | 8.0 | 0.00 | 0.01 | 0.01 | 84 | 1018.3 |
| 20260905181504 | 56 | 256 | 2.0 | 11.0 | 0.00 | 0.01 | 0.01 | 83 | 1018.2 |
| 20260905180005 | 57 | 264 | 1.0 | 7.0 | 0.00 | 0.01 | 0.01 | 82 | 1018.1 |
| 20260905174504 | 57 | 271 | 1.0 | 9.0 | 0.00 | 0.01 | 0.01 | 82 | 1018.0 |
| 20260905173004 | 57 | 284 | 2.0 | 10.0 | 0.00 | 0.01 | 0.01 | 81 | 1017.7 |
| 20260905171504 | 57 | 297 | 5.0 | 11.0 | 0.00 | 0.01 | 0.01 | 82 | 1017.6 |
| 20260905170025 | 57 | 305 | 6.0 | 11.0 | 0.00 | 0.01 | 0.01 | 83 | 1017.6 |
| 20260905164504 | 57 | 302 | 7.0 | 11.0 | 0.00 | 0.01 | 0.01 | 81 | 1017.6 |
| 20260905163004 | 57 | 295 | 3.0 | 9.0 | 0.00 | 0.01 | 0.01 | 81 | 1017.5 |
| 20260905161504 | 58 | 291 | 2.0 | 5.0 | 0.00 | 0.01 | 0.01 | 80 | 1017.4 |
| 20260905160004 | 58 | 311 | 5.0 | 12.0 | 0.00 | 0.01 | 0.01 | 79 | 1017.2 |
| 20260905154504 | 58 | 311 | 8.0 | 14.0 | 0.00 | 0.01 | 0.01 | 77 | 1017.2 |
| 20260905153004 | 59 | 302 | 8.0 | 14.0 | 0.00 | 0.01 | 0.01 | 75 | 1017.0 |
| 20260905151504 | 59 | 298 | 11.0 | 20.0 | 0.00 | 0.01 | 0.01 | 73 | 1016.9 |
| 20260905150004 | 59 | 295 | 12.0 | 20.0 | 0.00 | 0.01 | 0.01 | 73 | 1016.8 |
| 20260905144525 | 59 | 294 | 14.0 | 22.0 | 0.00 | 0.01 | 0.01 | 72 | 1016.7 |
| 20260905143004 | 60 | 296 | 14.0 | 22.0 | 0.00 | 0.01 | 0.01 | 73 | 1016.7 |
| 20260905141504 | 59 | 296 | 11.0 | 19.0 | 0.00 | 0.01 | 0.01 | 74 | 1016.7 |
| 20260905140005 | 59 | 290 | 7.0 | 18.0 | 0.00 | 0.01 | 0.01 | 71 | 1016.8 |
| 20260905134504 | 59 | 295 | 6.0 | 14.0 | 0.00 | 0.01 | 0.01 | 77 | 1016.7 |
| 20260905133004 | 58 | 298 | 13.0 | 23.0 | 0.00 | 0.01 | 0.01 | 77 | 1016.6 |
| 20260905131504 | 58 | 291 | 11.0 | 20.0 | 0.00 | 0.01 | 0.01 | 74 | 1016.2 |
| 20260905130004 | 58 | 289 | 10.0 | 20.0 | 0.00 | 0.01 | 0.01 | 73 | 1016.0 |
| 20260905124504 | 58 | 284 | 6.0 | 16.0 | 0.00 | 0.01 | 0.01 | 73 | 1015.9 |
| 20260905123025 | 57 | 283 | 9.0 | 22.0 | 0.00 | 0.01 | 0.01 | 74 | 1015.7 |
| 20260905121504 | 57 | 281 | 9.0 | 27.0 | 0.00 | 0.01 | 0.01 | 71 | 1015.5 |
| 20260905120004 | 58 | 281 | 8.0 | 25.0 | 0.00 | 0.01 | 0.01 | 70 | 1015.1 |
| 20260905114525 | 59 | 294 | 10.0 | 23.0 | 0.00 | 0.01 | 0.01 | 72 | 1014.9 |
| 20260905113004 | 57 | 292 | 14.0 | 27.0 | 0.00 | 0.02 | 0.01 | 74 | 1014.8 |
| 20260905111504 | 57 | 287 | 9.0 | 22.0 | 0.00 | 0.02 | 0.01 | 73 | 1014.6 |
| 20260905110004 | 56 | 288 | 12.0 | 26.0 | 0.00 | 0.02 | 0.01 | 71 | 1014.3 |
| 20260905104504 | 57 | 286 | 13.0 | 27.0 | 0.00 | 0.02 | 0.01 | 72 | 1014.0 |
| 20260905103004 | 57 | 285 | 15.0 | 33.0 | 0.00 | 0.06 | 0.01 | 73 | 1013.8 |
| 20260905101505 | 58 | 281 | 11.0 | 24.0 | 0.00 | 0.06 | 0.01 | 73 | 1013.5 |
| 20260905100004 | 57 | 278 | 8.0 | 25.0 | 0.00 | 0.06 | 0.01 | 74 | 1013.4 |
| 20260905094504 | 56 | 285 | 9.0 | 23.0 | 0.00 | 0.06 | 0.01 | 73 | 1013.0 |
| 20260905093025 | 57 | 291 | 10.0 | 20.0 | 0.00 | 0.06 | 0.01 | 75 | 1012.7 |
| 20260905091504 | 55 | 289 | 12.0 | 27.0 | 0.00 | 0.06 | 0.01 | 76 | 1012.5 |
| 20260905090004 | 56 | 288 | 14.0 | 31.0 | 0.00 | 0.06 | 0.01 | 76 | 1012.2 |
| 20260905084525 | 55 | 287 | 9.0 | 26.0 | 0.00 | 0.06 | 0.01 | 79 | 1011.8 |
| 20260905083004 | 54 | 291 | 12.0 | 30.0 | 0.00 | 0.06 | 0.01 | 82 | 1011.7 |
| 20260905081504 | 54 | 292 | 15.0 | 35.0 | 0.00 | 0.06 | 0.01 | 82 | 1011.3 |
| 20260905080004 | 54 | 286 | 13.0 | 26.0 | 0.00 | 0.06 | 0.01 | 81 | 1011.0 |
| 20260905074504 | 54 | 283 | 8.0 | 19.0 | 0.00 | 0.06 | 0.01 | 82 | 1010.8 |
| 20260905073004 | 53 | 279 | 8.0 | 23.0 | 0.00 | 0.06 | 0.01 | 83 | 1010.4 |
| 20260905071504 | 52 | 270 | 8.0 | 20.0 | 0.00 | 0.06 | 0.01 | 84 | 1010.1 |
| 20260905070004 | 52 | 271 | 8.0 | 22.0 | 0.00 | 0.06 | 0.01 | 85 | 1009.8 |
| 20260905064504 | 51 | 277 | 5.0 | 13.0 | 0.00 | 0.06 | 0.01 | 87 | 1009.8 |
| 20260905063004 | 51 | 275 | 7.0 | 21.0 | 0.00 | 0.06 | 0.01 | 87 | 1009.6 |
| 20260905061525 | 50 | 276 | 7.0 | 18.0 | 0.00 | 0.06 | 0.01 | 87 | 1009.4 |
| 20260905060004 | 50 | 276 | 7.0 | 19.0 | 0.00 | 0.06 | 0.01 | 89 | 1009.1 |
| 20260905054525 | 50 | 275 | 6.0 | 21.0 | 0.00 | 0.06 | 0.01 | 90 | 1008.9 |
| 20260905053004 | 50 | 280 | 9.0 | 23.0 | 0.00 | 0.06 | 0.01 | 89 | 1008.7 |
| 20260905051504 | 50 | 277 | 9.0 | 22.0 | 0.00 | 0.06 | 0.01 | 90 | 1008.5 |
| 20260905050004 | 50 | 276 | 8.0 | 22.0 | 0.00 | 0.06 | 0.01 | 91 | 1008.2 |
| 20260905044504 | 51 | 271 | 7.0 | 20.0 | 0.00 | 0.06 | 0.01 | 91 | 1008.2 |
| 20260905043004 | 51 | 277 | 5.0 | 19.0 | 0.00 | 0.06 | 0.01 | 92 | 1008.1 |
| 20260905041504 | 51 | 274 | 8.0 | 21.0 | 0.00 | 0.06 | 0.01 | 92 | 1007.8 |
| 20260905040004 | 51 | 276 | 6.0 | 15.0 | 0.00 | 0.06 | 0.01 | 92 | 1007.6 |
| 20260905034504 | 51 | 275 | 7.0 | 20.0 | 0.00 | 0.06 | 0.01 | 93 | 1007.4 |
| 20260905033004 | 51 | 275 | 8.0 | 23.0 | 0.00 | 0.06 | 0.01 | 93 | 1007.1 |
| 20260905031504 | 51 | 271 | 5.0 | 14.0 | 0.00 | 0.06 | 0.01 | 93 | 1007.1 |
| 20260905030025 | 52 | 271 | 7.0 | 24.0 | 0.00 | 0.06 | 0.01 | 93 | 1006.9 |
| 20260905024504 | 52 | 270 | 7.0 | 14.0 | 0.00 | 0.06 | 0.01 | 93 | 1006.6 |
| 20260905023004 | 52 | 270 | 8.0 | 24.0 | 0.00 | 0.06 | 0.01 | 93 | 1006.3 |
| 20260905021504 | 52 | 268 | 5.0 | 23.0 | 0.00 | 0.06 | 0.01 | 92 | 1006.1 |
| 20260905020004 | 52 | 267 | 7.0 | 22.0 | 0.00 | 0.06 | 0.01 | 92 | 1005.9 |
| 20260905014504 | 52 | 265 | 8.0 | 23.0 | 0.00 | 0.06 | 0.01 | 91 | 1005.7 |
| 20260905013004 | 52 | 270 | 6.0 | 18.0 | 0.00 | 0.06 | 0.01 | 91 | 1005.5 |
| 20260905011504 | 52 | 272 | 6.0 | 16.0 | 0.01 | 0.06 | 0.01 | 91 | 1005.2 |
| 20260905010004 | 52 | 275 | 8.0 | 29.0 | 0.01 | 0.06 | 0.01 | 91 | 1004.9 |
| 20260905004504 | 52 | 271 | 6.0 | 18.0 | 0.01 | 0.06 | 0.01 | 91 | 1004.8 |
| 20260905003004 | 52 | 270 | 7.0 | 21.0 | 0.01 | 0.06 | 0.01 | 90 | 1004.5 |
| 20260905001504 | 52 | 266 | 12.0 | 30.0 | 0.00 | 0.05 | 0.00 | 88 | 1004.0 |
| 20260905000004 | 53 | 261 | 11.0 | 31.0 | 0.00 | 0.05 | 0.00 | 84 | 1003.7 |
| 20260904234504 | 53 | 261 | 9.0 | 27.0 | 0.00 | 0.05 | 0.00 | 84 | 1003.5 |
| 20260904233004 | 53 | 258 | 10.0 | 26.0 | 0.00 | 0.05 | 0.00 | 85 | 1003.6 |
| 20260904231504 | 53 | 257 | 9.0 | 25.0 | 0.00 | 0.05 | 0.00 | 85 | 1003.6 |
| 20260904230004 | 53 | 260 | 7.0 | 24.0 | 0.00 | 0.05 | 0.00 | 85 | 1003.6 |
| 20260904224504 | 53 | 267 | 8.0 | 21.0 | 0.00 | 0.05 | 0.05 | 85 | 1003.4 |
| 20260904223004 | 53 | 267 | 5.0 | 14.0 | 0.00 | 0.05 | 0.05 | 86 | 1003.2 |
| 20260904221504 | 53 | 268 | 7.0 | 24.0 | 0.00 | 0.05 | 0.05 | 85 | 1002.8 |
| 20260904220004 | 54 | 267 | 5.0 | 18.0 | 0.00 | 0.05 | 0.05 | 84 | 1002.8 |
| 20260904214504 | 54 | 262 | 5.0 | 19.0 | 0.00 | 0.05 | 0.05 | 84 | 1002.8 |
| 20260904213004 | 53 | 262 | 7.0 | 20.0 | 0.00 | 0.05 | 0.05 | 84 | 1002.8 |
| 20260904211504 | 53 | 260 | 6.0 | 19.0 | 0.00 | 0.05 | 0.05 | 83 | 1002.6 |
| 20260904210004 | 53 | 262 | 6.0 | 19.0 | 0.00 | 0.05 | 0.05 | 83 | 1002.5 |
| 20260904204504 | 54 | 264 | 9.0 | 26.0 | 0.00 | 0.05 | 0.05 | 83 | 1002.4 |
| 20260904203004 | 54 | 265 | 8.0 | 33.0 | 0.00 | 0.05 | 0.05 | 83 | 1002.0 |
| 20260904201503 | 54 | 261 | 10.0 | 33.0 | 0.00 | 0.05 | 0.05 | 83 | 1001.8 |
| 20260904200004 | 54 | 264 | 10.0 | 27.0 | 0.00 | 0.05 | 0.05 | 83 | 1001.9 |
| 20260904194525 | 54 | 261 | 7.0 | 22.0 | 0.00 | 0.05 | 0.05 | 83 | 1001.8 |
| 20260904193004 | 54 | 263 | 9.0 | 22.0 | 0.00 | 0.05 | 0.05 | 82 | 1001.7 |
| 20260904191524 | 54 | 271 | 9.0 | 24.0 | 0.00 | 0.05 | 0.05 | 81 | 1001.2 |
| 20260904190004 | 55 | 276 | 9.0 | 25.0 | 0.00 | 0.05 | 0.05 | 81 | 1001.1 |